Date,TemperatureHighF,TemperatureAvgF,TemperatureLowF,DewpointHighF,DewpointAvgF,DewpointLowF,HumidityHigh,HumidityAvg,HumidityLow,PressureMaxIn,PressureMinIn,WindSpeedMaxMPH,WindSpeedAvgMPH,GustSpeedMaxMPH,PrecipitationSumIn
2013-1-1,23,18,5,20,13,2,89,82,67,30.30,30.14,7,4,11,0.00
2013-1-2,27,15,3,20,11,1,92,83,68,30.28,30.17,7,2,13,0.00
2013-1-3,33,25,16,30,22,12,93,87,80,30.38,30.18,10,4,13,0.01
2013-1-4,35,21,8,28,18,6,92,86,73,30.37,30.28,11,4,12,0.00
2013-1-5,38,30,19,35,27,16,95,90,84,30.29,30.02,10,4,13,0.02
2013-1-6,36,28,19,34,24,17,93,86,77,30.36,30.00,15,8,30,0.00
2013-1-7,41,30,19,34,26,17,93,87,72,30.38,30.13,11,4,22,0.00
2013-1-8,46,36,28,39,32,25,93,87,73,30.17,30.07,7,3,15,0.00
2013-1-9,51,38,29,40,33,26,94,83,55,30.50,30.08,11,3,16,0.00
2013-1-10,51,38,29,51,35,27,100,91,74,30.48,29.79,7,4,14,0.90
2013-1-11,59,53,47,54,51,46,100,94,83,29.81,29.68,11,7,20,0.36
2013-1-12,53,42,29,50,39,28,94,87,76,29.98,29.72,14,7,22,0.02
2013-1-13,29,22,16,28,18,12,94,86,82,30.33,29.90,8,5,11,0.00
2013-1-14,27,20,15,20,16,12,91,84,72,30.50,30.33,6,2,10,0.00
2013-1-15,31,22,13,23,18,11,93,84,69,30.46,30.15,4,1,8,0.00
2013-1-16,38,28,15,31,24,13,93,84,72,30.16,29.93,16,4,20,0.01
2013-1-17,36,31,23,32,26,20,93,81,57,30.45,30.09,14,5,19,0.00
2013-1-18,47,35,22,37,29,19,92,79,67,30.46,30.01,13,7,26,0.02
2013-1-19,54,43,36,43,36,30,86,76,64,30.03,29.82,19,8,21,0.00
2013-1-20,29,22,18,17,14,11,82,72,60,30.35,30.15,15,8,22,0.00
2013-1-21,19,12,8,13,4,0,81,68,53,30.40,30.27,17,11,24,0.00
2013-1-22,17,11,5,7,2,-2,79,66,52,30.49,30.39,8,5,14,0.00
2013-1-23,35,24,16,22,13,6,71,64,54,30.40,30.13,17,6,23,0.00
2013-1-24,25,19,10,13,8,2,78,63,52,30.66,30.32,13,5,23,0.00
2013-1-25,38,29,23,25,20,12,83,68,55,30.31,30.03,13,6,19,0.00
2013-1-26,33,25,14,21,15,9,82,67,52,30.42,30.23,10,3,17,0.00
2013-1-27,46,34,28,45,30,21,99,86,72,30.36,29.91,9,5,20,0.14
2013-1-28,57,51,45,57,51,44,100,100,98,29.93,29.76,8,4,15,0.02
2013-1-29,66,59,52,63,58,52,100,97,85,29.76,29.37,14,6,22,1.38
2013-1-30,52,35,21,51,33,16,100,93,81,29.80,29.25,21,11,29,0.16
2013-1-31,25,18,8,21,12,2,87,77,68,30.33,29.81,20,14,25,0.00
2013-2-1,23,14,5,21,7,0,91,74,62,30.47,30.21,14,8,20,0.00
2013-2-2,30,24,19,27,20,14,93,85,77,30.22,30.06,12,6,17,0.00
2013-2-3,32,26,20,25,21,16,95,81,62,30.13,30.00,15,6,22,0.00
2013-2-4,41,31,24,31,26,21,88,80,65,30.00,29.80,12,5,17,0.00
2013-2-5,44,33,22,36,29,19,93,85,72,30.10,29.84,13,5,20,0.00
2013-2-6,47,36,24,37,31,23,96,84,66,30.23,30.06,7,3,16,0.00
2013-2-7,39,37,36,38,36,33,98,95,88,30.08,29.83,11,4,21,0.46
2013-2-8,36,31,28,35,27,25,95,87,83,30.39,30.02,15,6,19,0.01
2013-2-9,37,33,30,34,30,26,90,86,82,30.39,30.03,7,4,16,0.00
2013-2-10,51,44,37,49,42,34,97,92,71,30.05,29.50,24,10,29,0.51
2013-2-11,43,37,30,36,30,27,86,75,66,30.12,29.62,25,14,36,0.00
2013-2-12,40,32,26,32,28,24,93,85,68,30.16,29.93,7,2,10,0.00
2013-2-13,48,36,26,37,31,24,97,85,61,29.93,29.76,10,3,14,0.00
2013-2-14,42,38,34,36,33,30,94,84,74,30.02,29.72,17,7,25,0.00
2013-2-15,37,31,24,32,22,17,92,71,49,30.25,30.02,11,8,17,0.00
2013-2-16,31,24,16,20,15,11,81,71,58,30.25,30.16,12,7,18,0.00
2013-2-17,40,28,15,27,20,10,89,73,55,30.23,29.92,9,4,18,0.00
2013-2-18,56,42,28,49,36,22,95,82,71,29.92,29.45,22,11,31,0.20
2013-2-19,27,23,19,22,16,12,83,74,67,30.28,29.79,23,16,31,0.00
2013-2-20,26,18,8,17,11,3,86,74,60,30.44,30.28,13,6,20,0.00
2013-2-21,30,25,16,29,22,13,97,88,79,30.38,29.88,12,6,19,0.00
2013-2-22,35,22,28,35,-6,-100,99,66,84,30.00,29.78,15,7,20,0.17
2013-2-23,31,26,19,25,22,17,93,83,76,30.02,29.97,9,4,11,0.02
2013-2-24,39,27,15,32,23,13,95,86,71,30.15,30.01,5,1,10,0.00
2013-2-25,46,36,27,38,32,25,94,84,73,30.12,29.81,10,5,17,0.00
2013-2-26,37,35,34,34,33,31,98,94,79,29.82,29.44,16,9,31,0.49
2013-2-27,35,33,32,33,32,31,98,96,89,29.80,29.56,9,5,14,0.32
2013-2-28,38,35,33,34,33,32,96,92,82,30.08,29.80,10,6,17,0.09
2013-3-1,33,30,27,32,27,23,96,87,77,30.22,30.07,10,6,16,0.02
2013-3-2,31,27,17,24,19,13,87,73,56,30.25,30.19,12,7,19,0.00
2013-3-3,34,24,13,24,18,11,93,77,52,30.22,30.08,4,1,7,0.00
2013-3-4,38,34,28,32,28,21,90,81,73,30.10,29.88,12,6,21,0.01
2013-3-5,36,33,30,33,31,28,97,93,84,30.07,29.83,16,9,25,0.12
2013-3-6,32,30,26,28,26,23,92,86,80,30.36,30.08,15,9,27,0.01
2013-3-7,37,31,27,30,27,24,91,85,77,30.43,30.35,5,2,11,0.00
2013-3-8,47,37,27,40,33,25,94,85,74,30.45,30.23,8,4,15,0.01
2013-3-9,53,44,38,47,40,34,95,86,78,30.23,29.76,11,6,21,0.41
2013-3-10,53,50,46,52,49,44,99,96,86,29.77,29.55,8,4,16,1.17
2013-3-11,50,38,32,50,36,29,99,93,86,29.91,29.60,16,11,24,0.01
2013-3-12,42,33,28,35,28,24,91,82,70,30.15,29.91,16,10,23,0.00
2013-3-13,38,30,25,26,23,21,86,75,51,30.38,30.14,13,8,23,0.00
2013-3-14,47,34,24,37,29,21,94,83,63,30.38,30.09,9,3,21,0.00
2013-3-15,55,42,29,47,38,28,96,86,72,30.08,29.64,6,2,11,0.00
2013-3-16,48,39,33,45,35,30,97,87,73,30.10,29.62,13,6,21,0.00
2013-3-17,40,35,32,32,30,26,88,80,70,30.16,29.89,11,7,21,0.00
2013-3-18,43,35,28,38,32,21,97,89,72,29.95,29.68,18,8,27,0.05
2013-3-19,43,31,23,24,20,15,80,64,41,30.17,29.93,16,10,24,0.00
2013-3-20,33,26,19,23,15,11,80,63,48,30.23,30.11,18,12,28,0.00
2013-3-21,36,26,16,19,14,11,84,64,45,30.14,30.02,11,3,16,0.00
2013-3-22,46,33,18,28,22,16,91,66,40,30.08,29.99,5,1,10,0.00
2013-3-23,51,41,34,32,28,25,75,62,44,30.08,29.94,10,5,18,0.00
2013-3-24,35,32,31,33,31,27,98,95,73,29.96,29.63,13,9,22,0.15
2013-3-25,38,33,29,31,30,28,98,87,73,30.14,29.76,13,9,23,0.17
2013-3-26,39,36,32,31,29,27,84,78,66,30.31,30.14,10,6,14,0.00
2013-3-27,46,37,30,32,29,26,91,75,54,30.37,30.31,7,3,12,0.00
2013-3-28,49,38,25,36,31,23,96,78,56,30.38,30.28,5,1,11,0.00
2013-3-29,59,46,36,40,37,33,90,71,45,30.30,30.19,5,2,10,0.00
2013-3-30,57,47,34,47,41,32,96,82,63,30.20,29.88,11,4,22,0.00
2013-3-31,64,52,42,50,43,31,96,75,48,29.93,29.77,16,8,37,0.00
2013-4-1,46,39,31,32,26,22,82,60,41,30.23,29.94,13,9,23,0.00
2013-4-2,49,36,23,26,22,18,87,59,34,30.34,30.24,11,5,17,0.00
2013-4-3,52,39,25,27,24,20,83,57,33,30.44,30.29,8,3,14,0.00
2013-4-4,60,44,30,34,29,24,81,58,34,30.28,30.00,6,2,10,0.00
2013-4-5,62,49,36,39,34,27,86,59,33,30.19,30.02,9,4,15,0.00
2013-4-6,71,58,44,53,40,28,83,53,37,30.05,29.62,18,10,34,0.11
2013-4-7,71,57,42,51,47,39,94,71,47,29.93,29.71,8,3,14,0.00
2013-4-8,74,65,58,62,59,47,94,81,66,29.83,29.59,15,6,24,0.15
2013-4-9,80,69,61,66,62,58,90,78,58,29.84,29.74,17,7,24,0.00
2013-4-10,68,50,44,63,48,43,98,94,81,29.89,29.67,14,7,24,0.53
2013-4-11,47,42,40,43,37,34,87,83,80,29.66,29.61,13,11,21,0.07
2013-4-12,44,41,39,39,36,34,89,83,78,29.92,29.63,15,10,26,0.00
2013-4-13,53,45,38,42,36,30,82,71,56,30.01,29.92,14,7,22,0.00
2013-4-14,76,61,47,57,50,39,87,68,45,29.93,29.57,14,8,27,0.00
2013-4-15,65,56,47,59,53,44,98,90,67,29.96,29.65,14,5,31,0.34
2013-4-16,56,49,43,46,43,41,96,82,61,30.18,29.93,8,5,14,0.35
2013-4-17,58,51,46,58,48,40,99,89,76,30.19,29.66,15,7,25,1.25
2013-4-18,64,43,41,63,22,-100,100,75,80,29.66,29.42,22,9,30,0.80
2013-4-19,43,40,35,38,34,30,85,79,73,30.02,29.62,18,13,29,0.00
2013-4-20,50,40,31,37,32,28,89,73,52,30.36,30.02,5,2,12,0.00
2013-4-21,59,49,39,46,39,32,82,70,59,30.45,30.26,9,6,20,0.00
2013-4-22,69,56,44,51,44,38,83,66,42,30.28,29.98,9,4,15,0.00
2013-4-23,58,48,40,53,46,38,97,93,82,30.03,29.89,12,6,22,0.43
2013-4-24,51,44,38,40,38,35,95,80,59,30.17,29.96,11,7,17,0.00
2013-4-25,57,48,41,40,37,32,85,67,48,30.31,30.13,14,7,21,0.00
2013-4-26,65,53,43,53,45,37,88,73,62,30.32,30.23,11,6,19,0.00
2013-4-27,62,54,44,53,50,42,98,86,62,30.27,29.94,7,3,17,0.12
2013-4-28,67,58,53,59,55,51,100,91,72,29.94,29.81,8,4,13,0.01
2013-4-29,77,62,46,65,56,45,98,83,64,29.90,29.70,10,5,22,0.00
2013-4-30,86,72,60,67,61,58,96,72,44,29.89,29.72,13,6,23,0.00
2013-5-1,84,71,59,64,59,56,93,69,41,30.06,29.90,8,3,16,0.00
2013-5-2,72,62,48,64,57,46,95,83,73,30.12,30.03,12,6,18,0.08
2013-5-3,62,47,45,62,38,-100,100,89,95,30.07,29.77,11,5,19,0.85
2013-5-4,64,59,54,60,57,52,98,93,80,30.00,29.81,10,3,24,0.20
2013-5-5,73,61,54,62,56,53,99,84,55,29.99,29.86,8,4,17,0.02
2013-5-6,76,65,55,57,53,48,92,66,40,29.97,29.90,10,4,18,0.00
2013-5-7,79,69,57,59,50,43,82,55,31,29.99,29.92,6,1,10,0.00
2013-5-8,81,67,50,60,54,48,97,67,36,30.00,29.91,4,1,11,0.00
2013-5-9,70,64,61,65,62,59,98,93,78,29.94,29.77,8,2,15,0.58
2013-5-10,61,56,52,61,54,50,99,93,87,29.96,29.77,10,5,17,0.01
2013-5-11,62,55,44,55,45,35,96,72,45,30.09,29.90,15,6,23,0.00
2013-5-12,58,49,38,39,36,33,85,62,42,30.18,30.10,11,4,17,0.00
2013-5-13,69,55,36,47,41,34,98,65,37,30.18,29.99,8,2,13,0.00
2013-5-14,92,74,54,68,59,46,80,61,42,29.98,29.65,13,6,18,0.00
2013-5-15,84,76,67,69,63,59,83,63,53,29.80,29.70,13,6,20,0.00
2013-5-16,85,72,62,68,63,59,96,77,44,29.89,29.79,6,2,11,0.13
2013-5-17,81,70,59,68,64,58,97,81,53,29.94,29.86,6,2,14,0.35
2013-5-18,82,72,64,70,66,64,98,82,61,29.98,29.85,4,1,10,0.00
2013-5-19,89,78,65,76,70,63,96,79,61,29.88,29.65,8,4,18,0.00
2013-5-20,84,74,64,72,67,62,98,79,55,29.80,29.63,22,6,28,0.46
2013-5-21,82,72,64,71,66,62,97,83,63,29.71,29.60,11,5,18,0.04
2013-5-22,73,67,61,66,62,57,96,85,67,29.77,29.59,10,4,18,0.09
2013-5-23,64,59,50,60,55,47,96,86,72,30.23,29.77,11,4,17,0.01
2013-5-24,68,55,41,50,45,39,98,70,40,30.42,30.23,6,2,14,0.01
2013-5-25,56,53,50,54,47,40,96,81,63,30.40,30.20,6,3,16,0.51
2013-5-26,66,58,52,63,56,50,98,93,86,30.26,30.00,10,4,15,0.89
2013-5-27,70,64,59,67,63,58,100,97,89,30.03,29.74,8,2,18,1.23
2013-5-28,77,72,65,74,69,64,98,92,83,29.87,29.70,12,5,24,0.35
2013-5-29,84,72,64,75,68,63,96,89,71,29.92,29.80,8,4,22,0.04
2013-5-30,84,75,64,75,70,62,99,84,67,29.85,29.71,14,7,38,1.29
2013-5-31,76,69,64,74,68,64,99,95,86,29.84,29.65,10,3,16,1.34
2013-6-1,76,68,64,71,65,61,97,90,75,29.78,29.64,11,4,20,0.06
2013-6-2,64,62,58,61,58,53,97,88,81,30.01,29.77,8,4,13,0.00
2013-6-3,68,60,49,56,52,47,97,77,60,30.11,29.98,4,1,13,0.00
2013-6-4,74,64,52,61,56,50,95,75,55,30.09,29.98,5,2,13,0.00
2013-6-5,79,69,58,65,61,56,95,77,55,30.01,29.83,5,1,9,0.00
2013-6-6,73,66,60,66,60,55,90,81,73,29.85,29.80,7,3,14,0.00
2013-6-7,74,65,56,62,57,52,89,77,61,29.89,29.84,8,3,15,0.00
2013-6-8,79,67,51,62,56,48,93,70,50,29.94,29.87,4,1,8,0.00
2013-6-9,82,70,63,68,63,60,93,78,58,29.92,29.74,11,4,18,0.01
2013-6-10,79,69,60,69,64,59,99,85,65,29.85,29.70,5,1,12,0.01
2013-6-11,88,74,58,77,68,58,100,83,64,29.91,29.73,9,2,16,0.03
2013-6-12,95,83,70,78,74,68,98,77,50,29.84,29.55,15,6,22,0.00
2013-6-13,83,75,66,74,63,58,96,69,45,29.95,29.63,10,5,16,0.01
2013-6-14,80,70,56,67,60,54,94,73,52,30.08,29.91,4,1,11,0.00
2013-6-15,80,71,66,73,67,60,97,86,70,30.03,29.84,12,2,21,0.62
2013-6-16,83,73,65,75,70,65,100,90,74,29.93,29.85,5,1,10,0.01
2013-6-17,86,76,65,74,69,62,100,81,47,29.91,29.83,4,0,6,0.00
2013-6-18,84,74,66,72,66,59,99,79,59,29.98,29.84,8,2,12,0.00
2013-6-19,84,71,57,69,61,52,86,70,46,30.06,29.98,4,1,8,0.00
2013-6-20,89,78,64,72,67,61,97,71,47,30.08,29.98,5,2,12,0.00
2013-6-21,89,77,71,77,71,66,95,82,64,30.03,29.90,17,3,27,0.03
2013-6-22,84,76,68,79,73,65,95,88,81,30.01,29.91,10,2,21,0.00
2013-6-23,88,74,67,78,71,65,98,88,66,30.00,29.85,8,2,20,0.04
2013-6-24,89,74,68,80,71,67,98,91,74,30.04,29.84,7,2,11,0.31
2013-6-25,85,76,70,79,74,68,98,92,81,29.89,29.76,9,3,20,0.18
2013-6-26,85,77,70,79,74,68,99,91,76,29.80,29.66,9,2,13,0.01
2013-6-27,91,80,72,78,74,69,100,82,58,29.80,29.70,7,2,12,0.00
2013-6-28,86,76,65,70,66,62,98,72,46,29.76,29.61,11,4,25,0.00
2013-6-29,78,69,65,69,65,62,95,88,73,29.72,29.58,10,4,17,0.12
2013-6-30,80,70,63,68,62,54,92,79,60,29.93,29.72,8,4,16,0.02
2013-7-1,81,71,62,60,56,52,78,59,44,29.99,29.91,11,6,21,0.00
2013-7-2,78,68,61,62,58,55,85,71,52,30.02,29.96,9,4,17,0.00
2013-7-3,79,68,59,63,59,56,95,76,50,30.04,29.97,6,1,9,0.00
2013-7-4,85,73,61,70,65,60,97,76,55,30.05,29.97,5,2,12,0.00
2013-7-5,86,74,62,72,66,61,99,78,50,30.04,29.95,5,1,13,0.00
2013-7-6,86,74,64,74,69,62,99,85,61,30.01,29.92,5,1,10,0.00
2013-7-7,91,79,67,77,72,65,93,79,58,29.97,29.90,6,2,11,0.00
2013-7-8,88,79,75,78,74,72,95,87,71,30.02,29.92,9,2,12,0.03
2013-7-9,92,82,76,82,78,75,98,87,72,29.96,29.83,6,2,11,0.04
2013-7-10,90,80,65,79,72,62,97,80,54,29.96,29.78,10,3,18,0.00
2013-7-11,84,72,60,69,62,59,98,74,46,30.04,29.96,6,2,14,0.00
2013-7-12,85,71,57,62,58,54,92,68,41,30.10,30.01,5,1,12,0.00
2013-7-13,86,74,61,67,64,59,97,73,45,30.09,30.01,6,2,15,0.00
2013-7-14,90,78,66,74,70,64,97,77,53,30.12,30.04,5,2,11,0.00
2013-7-15,91,80,72,78,75,71,97,86,65,30.19,30.11,5,1,10,0.00
2013-7-16,92,82,74,79,76,73,99,82,60,30.26,30.18,5,2,11,0.00
2013-7-17,95,83,71,80,76,71,100,82,57,30.27,30.13,4,1,9,0.00
2013-7-18,95,84,73,81,77,73,100,82,59,30.15,29.93,5,2,13,0.00
2013-7-19,96,85,74,80,77,73,98,79,56,29.94,29.76,8,3,16,0.00
2013-7-20,91,81,71,77,71,65,96,74,47,29.87,29.77,6,2,12,0.00
2013-7-21,82,75,66,76,72,65,98,90,79,29.89,29.80,5,1,10,0.09
2013-7-22,89,78,68,77,72,68,99,85,62,29.82,29.71,14,2,21,0.00
2013-7-23,85,74,65,73,68,63,99,82,62,29.89,29.72,11,4,28,0.02
2013-7-24,79,68,56,62,58,54,97,73,51,30.01,29.89,6,2,14,0.00
2013-7-25,83,69,53,65,60,51,98,75,51,30.08,30.00,4,1,9,0.00
2013-7-26,77,67,61,72,65,60,97,92,85,30.02,29.87,8,1,16,0.66
2013-7-27,70,63,53,62,56,52,98,80,56,29.95,29.89,9,3,15,0.01
2013-7-28,75,63,50,59,55,48,98,78,54,30.02,29.92,7,2,16,0.00
2013-7-29,79,66,52,64,58,52,100,80,56,30.13,30.03,5,1,8,0.00
2013-7-30,70,68,66,70,66,60,99,94,80,30.11,29.99,4,1,11,0.47
2013-7-31,78,72,67,73,69,65,100,93,82,30.00,29.94,6,2,12,0.01
2013-8-1,84,72,62,69,65,61,100,80,53,30.01,29.91,6,1,13,0.01
2013-8-2,85,74,65,76,70,63,97,86,66,29.92,29.83,7,3,14,0.00
2013-8-3,83,74,61,71,65,59,98,77,51,30.08,29.90,8,2,12,0.00
2013-8-4,81,69,56,66,61,55,100,77,50,30.14,30.04,3,1,9,0.00
2013-8-5,78,69,59,70,64,58,99,86,73,30.06,29.83,5,2,13,0.00
2013-8-6,86,75,66,77,72,65,99,90,71,29.88,29.77,4,1,8,0.00
2013-8-7,89,78,70,81,74,69,99,88,67,29.88,29.76,8,2,13,0.00
2013-8-8,84,74,66,72,68,64,96,82,66,29.94,29.86,7,2,13,0.00
2013-8-9,82,72,59,70,64,57,96,78,54,30.02,29.93,5,1,8,0.00
2013-8-10,83,73,60,69,64,58,96,74,52,30.10,30.02,8,3,14,0.00
2013-8-11,85,70,54,69,63,54,100,80,55,30.11,30.00,5,1,8,0.00
2013-8-12,85,74,63,75,69,62,98,85,68,30.03,29.84,6,1,12,0.00
2013-8-13,78,68,53,66,59,50,94,75,48,30.12,29.90,9,4,15,0.00
2013-8-14,76,62,48,58,53,47,99,76,46,30.19,30.10,5,1,7,0.00
2013-8-15,77,65,54,60,57,52,97,78,50,30.16,30.06,4,1,9,0.00
2013-8-16,82,69,58,62,59,55,95,73,43,30.14,30.08,6,2,13,0.00
2013-8-17,81,68,55,64,60,54,98,77,51,30.18,30.10,6,2,12,0.00
2013-8-18,84,70,55,65,61,54,98,76,48,30.16,30.05,6,1,11,0.00
2013-8-19,86,73,59,71,66,58,99,80,54,30.09,29.99,5,1,10,0.00
2013-8-20,88,75,63,73,68,62,99,81,55,30.07,29.98,5,1,10,0.00
2013-8-21,90,77,65,74,70,65,99,80,55,30.06,29.95,6,2,13,0.00
2013-8-22,84,76,70,75,71,68,94,84,71,30.05,29.98,8,2,16,0.00
2013-8-23,87,75,64,72,68,64,99,81,52,30.10,30.03,6,2,12,0.00
2013-8-24,88,75,62,73,68,60,96,79,59,30.18,30.09,5,2,11,0.00
2013-8-25,91,78,65,73,69,64,96,77,51,30.22,30.11,5,2,12,0.00
2013-8-26,93,79,64,78,72,63,98,80,52,30.14,29.97,5,2,10,0.00
2013-8-27,95,82,71,77,73,69,98,77,50,29.99,29.86,8,3,15,0.00
2013-8-28,96,83,69,79,73,67,93,76,53,29.95,29.87,5,2,12,0.00
2013-8-29,88,79,71,77,74,70,99,86,69,30.01,29.91,5,2,11,0.00
2013-8-30,100,84,71,81,75,67,98,77,47,29.92,29.73,8,2,13,0.00
2013-8-31,96,82,71,82,74,65,94,77,59,29.78,29.66,8,3,19,0.00
2013-9-1,92,78,66,76,71,65,100,81,50,29.80,29.69,7,2,11,0.00
2013-9-2,85,73,59,68,63,55,93,73,50,29.94,29.79,9,4,16,0.00
2013-9-3,80,67,55,64,60,54,99,78,51,30.06,29.94,6,1,11,0.00
2013-9-4,87,69,53,66,60,53,100,75,44,30.12,30.02,4,1,8,0.00
2013-9-5,90,74,59,71,65,58,97,76,51,30.15,30.08,4,1,10,0.00
2013-9-6,89,74,60,70,65,58,94,75,49,30.14,29.98,5,2,13,0.00
2013-9-7,91,76,62,72,67,61,98,76,48,29.99,29.85,7,2,14,0.00
2013-9-8,89,79,71,75,72,69,94,81,61,29.93,29.83,5,2,11,0.01
2013-9-9,98,83,71,79,75,70,99,79,49,29.87,29.79,7,3,11,0.00
2013-9-10,98,82,68,74,71,67,96,71,41,29.99,29.88,10,3,17,0.00
2013-9-11,96,81,68,74,70,66,94,72,45,30.03,29.95,8,3,17,0.00
2013-9-12,87,75,64,73,62,50,99,69,34,30.04,29.94,12,5,21,0.02
2013-9-13,73,62,52,55,48,42,91,61,34,30.15,30.03,10,4,18,0.00
2013-9-14,75,59,43,51,47,42,98,70,38,30.17,30.00,4,1,10,0.00
2013-9-15,70,62,54,64,56,49,96,83,62,30.12,29.95,8,2,18,0.21
2013-9-16,74,63,53,58,56,50,96,80,56,30.29,30.12,8,4,14,0.00
2013-9-17,78,63,51,62,56,49,96,79,56,30.27,30.06,5,2,10,0.00
2013-9-18,88,75,63,73,67,58,92,77,59,30.06,29.86,8,3,19,0.00
2013-9-19,93,80,70,75,72,67,96,77,52,29.90,29.73,13,4,15,0.40
2013-9-20,73,68,57,70,63,53,100,87,60,29.86,29.78,7,2,40,0.06
2013-9-21,72,60,51,57,53,49,96,78,49,29.91,29.84,7,3,15,0.00
2013-9-22,74,59,46,54,50,45,100,76,44,30.02,29.91,4,1,9,0.01
2013-9-23,78,62,48,55,51,46,94,69,42,30.04,29.93,5,2,13,0.00
2013-9-24,80,64,50,61,55,48,95,75,51,29.96,29.81,5,2,13,0.00
2013-9-25,82,68,54,64,58,51,89,70,51,29.88,29.82,6,2,13,0.00
2013-9-26,85,68,56,66,58,52,90,72,47,30.00,29.88,6,2,10,0.00
2013-9-27,85,68,51,63,55,49,94,66,36,30.09,29.97,6,2,12,0.00
2013-9-28,85,71,59,69,62,56,97,75,53,30.00,29.85,11,4,24,0.46
2013-9-29,73,61,52,60,52,46,99,77,39,30.04,29.95,7,3,12,0.01
2013-9-30,79,63,49,61,55,48,97,77,45,29.97,29.83,5,1,12,0.00
2013-10-1,81,70,61,71,66,60,99,89,68,29.95,29.87,8,3,15,0.00
2013-10-2,84,69,62,72,62,-100,100,87,60,30.03,29.91,4,1,12,0.01
2013-10-3,83,71,65,74,69,64,100,92,70,29.92,29.78,13,2,24,0.88
2013-10-4,86,75,66,76,70,65,100,86,63,29.92,29.84,4,1,9,0.00
2013-10-5,78,71,58,74,68,56,99,90,74,29.88,29.74,9,2,13,0.00
2013-10-6,58,52,47,55,47,43,96,83,64,29.81,29.74,10,4,18,0.01
2013-10-7,70,56,46,54,50,45,98,81,52,30.08,29.81,7,2,17,0.01
2013-10-8,78,61,46,57,51,45,98,73,41,30.17,30.08,4,1,11,0.00
2013-10-9,75,60,46,54,50,45,96,73,42,30.19,30.07,3,0,10,0.00
2013-10-10,78,62,49,62,56,47,97,80,56,30.13,29.97,4,1,12,0.00
2013-10-11,80,68,58,65,59,56,95,76,51,30.01,29.86,8,3,18,0.00
2013-10-12,73,64,51,66,56,43,93,76,43,30.18,29.89,7,2,13,0.00
2013-10-13,68,53,39,49,41,38,98,67,36,30.37,30.18,7,2,13,0.00
2013-10-14,69,54,39,49,42,37,95,69,37,30.36,30.05,6,1,15,0.00
2013-10-15,71,61,52,65,55,46,98,82,66,30.04,29.78,10,4,17,0.05
2013-10-16,56,52,45,48,46,42,90,80,72,29.97,29.90,9,4,16,0.00
2013-10-17,63,52,44,51,46,41,97,81,51,29.96,29.83,9,3,18,0.10
2013-10-18,57,47,39,45,42,38,97,83,60,30.00,29.86,6,2,14,0.02
2013-10-19,57,48,40,45,41,38,97,78,51,29.97,29.83,11,4,17,0.04
2013-10-20,72,55,38,51,44,37,96,70,41,29.87,29.72,12,3,22,0.00
2013-10-21,58,46,31,48,37,28,90,70,46,30.02,29.82,9,3,15,0.00
2013-10-22,45,37,28,44,36,26,100,94,89,30.01,29.82,8,2,14,0.34
2013-10-23,47,40,35,38,35,32,96,82,59,30.09,29.96,6,3,14,0.00
2013-10-24,45,39,28,37,30,24,92,71,54,30.36,30.08,9,4,18,0.00
2013-10-25,55,39,24,40,30,22,94,73,44,30.46,30.15,8,2,15,0.00
2013-10-26,59,47,32,42,35,29,89,65,41,30.14,29.95,14,5,22,0.00
2013-10-27,58,41,26,39,32,25,96,74,45,30.11,29.98,6,1,12,0.00
2013-10-28,66,48,32,44,36,29,91,69,37,30.28,30.05,5,1,12,0.00
2013-10-29,59,50,41,53,45,39,97,85,60,30.28,30.08,4,2,11,0.02
2013-10-30,66,59,54,66,59,53,100,99,97,30.08,29.75,8,2,15,1.95
2013-10-31,65,58,48,65,58,46,100,98,93,29.74,29.26,10,5,22,0.87
2013-11-1,54,48,42,48,45,40,98,91,76,29.78,29.50,9,4,17,0.00
2013-11-2,54,44,34,43,39,33,97,84,59,30.16,29.77,11,4,19,0.01
2013-11-3,55,43,29,43,36,28,98,80,54,30.29,30.15,5,2,12,0.00
2013-11-4,59,52,45,48,45,39,83,77,66,30.19,30.07,10,4,18,0.00
2013-11-5,56,54,52,55,52,48,98,93,81,30.23,29.94,6,2,15,0.30
2013-11-6,58,48,34,58,46,31,99,93,85,30.22,29.83,16,6,20,0.62
2013-11-7,51,37,28,44,33,26,95,86,64,30.32,30.22,13,3,19,0.00
2013-11-8,50,41,28,40,34,26,97,79,60,30.34,29.98,10,3,15,0.01
2013-11-9,63,51,43,48,42,38,89,71,49,30.19,29.94,14,7,21,0.00
2013-11-10,49,41,34,38,35,31,92,79,60,30.41,30.19,6,2,15,0.00
2013-11-11,54,42,28,44,37,23,96,83,66,30.54,30.12,12,5,21,0.04
2013-11-12,33,27,22,25,22,17,91,80,70,30.77,30.54,11,5,17,0.00
2013-11-13,43,31,19,28,23,17,92,74,51,30.68,30.23,10,4,17,0.00
2013-11-14,54,40,30,33,28,23,79,64,43,30.23,29.99,10,5,15,0.00
2013-11-15,51,43,34,43,37,30,90,80,73,30.00,29.90,6,3,10,0.00
2013-11-16,61,54,41,58,52,39,96,93,86,29.90,29.56,12,7,24,0.11
2013-11-17,74,59,45,68,55,42,97,86,74,29.86,29.18,25,11,39,0.01
2013-11-18,50,42,31,42,36,28,91,79,60,30.28,29.86,14,7,21,0.00
2013-11-19,47,36,25,33,29,23,95,79,55,30.36,30.23,4,2,11,0.00
2013-11-20,44,39,33,41,35,30,95,87,74,30.25,30.02,10,4,17,0.23
2013-11-21,51,47,43,49,46,41,98,95,92,30.21,30.07,7,1,9,0.11
2013-11-22,44,38,28,44,35,26,97,90,81,30.53,30.21,12,6,18,0.02
2013-11-23,28,24,17,26,18,10,92,76,62,30.76,30.51,14,8,23,0.00
2013-11-24,29,21,12,17,12,8,87,72,47,30.80,30.43,6,2,15,0.00
2013-11-25,34,30,24,27,23,17,84,73,63,30.42,30.13,11,5,18,0.00
2013-11-26,37,28,20,31,22,12,91,76,60,30.25,30.08,15,7,27,0.00
2013-11-27,30,22,16,16,13,9,83,69,54,30.33,30.24,11,6,21,0.00
2013-11-28,40,28,19,26,20,14,83,72,57,30.51,30.20,9,4,13,0.00
2013-11-29,40,28,14,26,21,11,92,77,56,30.63,30.39,5,2,12,0.00
2013-11-30,54,38,27,40,31,25,94,80,56,30.38,30.06,8,2,13,0.00
2013-12-1,50,37,25,38,32,23,97,83,59,30.12,29.95,4,0,6,0.00
2013-12-2,46,40,33,41,37,31,94,88,78,29.95,29.66,5,3,10,0.00
2013-12-3,51,46,39,51,46,37,100,98,94,29.68,29.60,5,3,12,0.00
2013-12-4,56,50,36,56,49,32,100,97,87,29.79,29.46,16,5,25,0.01
2013-12-5,35,26,22,31,20,14,92,78,70,30.31,29.80,15,9,21,0.00
2013-12-6,22,19,14,15,12,8,80,74,66,30.62,30.30,10,7,19,0.00
2013-12-7,24,15,9,11,8,6,85,73,51,30.75,30.57,8,4,13,0.00
2013-12-8,26,23,16,25,19,10,95,86,74,30.56,30.01,11,5,17,0.00
2013-12-9,26,19,8,25,14,2,94,81,73,30.30,30.03,13,8,18,0.00
2013-12-10,28,18,4,20,11,0,92,76,59,30.33,30.14,15,5,23,0.00
2013-12-11,25,18,5,20,11,-2,84,73,54,30.67,30.27,14,5,21,0.00
2013-12-12,33,18,3,20,10,-2,83,72,59,30.64,30.25,13,3,20,0.00
2013-12-13,42,29,18,33,24,14,96,81,58,30.25,30.02,5,2,10,0.00
2013-12-14,34,31,23,33,30,20,98,95,89,30.09,29.91,12,4,18,0.04
2013-12-15,22,18,13,19,14,10,91,85,78,30.16,30.07,12,4,18,0.00
2013-12-16,26,20,17,23,18,14,100,89,81,30.14,30.03,6,3,10,0.00
2013-12-17,36,27,21,32,24,16,95,86,70,30.22,30.08,12,6,17,0.08
2013-12-18,38,26,8,33,21,4,90,79,69,30.23,29.88,10,4,14,0.10
2013-12-19,42,39,35,41,37,32,97,92,87,29.90,29.74,6,2,9,0.12
2013-12-20,44,38,31,43,38,31,99,99,97,29.85,29.70,7,3,11,0.13
2013-12-21,34,32,30,34,31,30,99,98,97,29.87,29.58,6,4,10,0.01
2013-12-22,34,30,20,34,30,18,99,96,90,30.24,29.60,12,6,17,0.00
2013-12-23,21,14,7,19,10,1,90,84,75,30.57,30.25,12,8,17,0.00
2013-12-24,22,12,1,17,7,-3,90,80,76,30.65,30.37,8,4,16,0.00
2013-12-25,31,28,23,29,25,17,94,89,78,30.37,30.18,10,6,15,0.00
2013-12-26,39,31,20,35,28,17,93,87,78,30.34,30.17,7,3,15,0.01
2013-12-27,46,35,25,40,32,23,96,89,77,30.33,30.16,6,2,10,0.00
2013-12-28,53,40,32,40,34,30,93,79,57,30.16,29.86,8,3,13,0.01
2013-12-29,36,25,7,31,21,0,92,85,74,30.29,29.81,14,9,23,0.00
2013-12-30,18,10,2,12,2,-4,77,69,55,30.39,30.22,10,3,16,0.00
2013-12-31,27,19,13,20,13,9,84,77,66,30.42,30.21,9,4,15,0.00
2014-1-1,26,22,18,20,18,14,91,84,79,30.22,30.13,11,7,18,0.00
2014-1-2,18,13,-1,14,8,-4,88,82,75,30.49,30.14,14,9,21,0.00